Location: Larkspur
(54.4391°N, 113.7691°W)
Time: 21:52:18
(UTC+00:00)

METEOR M2 - Pass Details

Date: 04 December 2023
Orbit: 819 x 826 km, 98.4° (Epoch: 04 March)

Event Time Altitude Azimuth Distance (km) Brightness Sun altitude
Rises 12:02:23 0° 25° (NNE) 3,375 ? -29.9°
Reaches altitude 10° 12:05:42 10° 47° (NE) 2,434 ? -29.4°
Maximum altitude 12:09:00 16° 85° (E) 2,019 ? -28.9°
Drops below altitude 10° 12:12:17 10° 123° (ESE) 2,420 ? -28.4°
Sets 12:15:34 0° 144° (SE) 3,346 ? -28.0°
